Showing default

ION SCV-014, 62630

Orbit data source: Space-Track

ION SCV-014, 62630 is a payload satellite owned by D-ORBIT (IT) in SSO that was launched on Tue, 14 Jan 2025 UTC via an FALCON 9 launch vehicle from the Air Force Western Test Range (AFWTR). Payload-class satellites include a variety of spacecraft equipped with specific instruments for various scientific and technological missions. These include communications satellites like Starlink; space stations such as the ISS; scientific satellites like the Hubble; Earth observation satellites from companies like Planet Labs, Umbra, and HawkEye 360; GPS; miniature CubeSats for education and research; and military/defense satellites.

Loading next visibility...
Identifier
62630, 2025-009X
Orbit
SSO
Country
Flag of ITIT
Related business
Manufacturer
D-ORBIT
Mission
Operational Commercial Technology
Bus & Motor
ION-SC, PM200
Mass
220 kg wet, 150 kg dry
Launch date (UTC)
2025-01-14 (1 year ago)
Launch vehicle
FALCON 9
Launch site
Air Force Western Test Range (AFWTR)
Object type
Payload
Rocket body
Debris
Shape & HBR
Box, 1.9 m
Radar Cross Section
0.240 m², Large (>1 m²)

Expand to show TLE details & history
Last TLE update: 18 hours ago

TLE from 18 hours ago
0 ION SCV-014
1 62630U 25009X   26171.10280226  .00000945  00000-0  70373-4 0  9993
2 62630  97.4852 244.1797 0006026 121.6757 238.5058 15.05233877 78424
Epoch: 2026-06-20T02:28Z
TLE epoch observation values (Epoch: 2026-06-20T02:28:02.115Z)
Latitude
-0.00003°
Longitude
-61.15135°
Altitude
556.039 km
Speed
7.582 km/s
True Right ascension
16h 16m 43s
True Declination
0° 00' 00"
Sunlit
Object was in full shadow at epoch
Visualization orbit readout
Latitude
Unknown
Longitude
Unknown
Altitude
Unknown
Speed
Unknown
Apparent Right ascension
Unknown
Apparent Declination
Unknown
Sunlit
N/A
Visualization observer readout
Local Sidereal Time
07:22:45
Azimuth
Unknown
Elevation
Unknown
Doppler factor
Unknown
Orbital elements
Apogee altitude
551.95 km
Perigee altitude
543.603 km
Semi-major axis
6,925.914 km
Eccentricity
0.0006
Inclination
97.4852°
RAAN
244.1797°
Arg. of periapsis
121.6757°
True anomaly
238.44694°
Mean anomaly
238.5058°
Eccentric anomaly
238.47637°
Mean motion
3.76554 °/min
Orbital period
95.6 mins
BSTAR
0.000070373
Loading maneuver chart data...
Computing Atmospheric mass density...
Loading historical data...
Loading historical data...
Loading historical data...
Loading historical data...
Loading historical data...
Loading historical data...
Loading historical data...

Documentation

Showing up to 5 results
|